Starlink 1267

operational
NORAD ID: 45384 Int'l Des: 2020-019 Owner: SPXS Country: US Constellation: starlink
LEOCIRCULARSTARLINK_TYPE

Starlink 1267について

説明を読み込み中...

リアルタイム位置

3D地球を読み込み中...

次回通過

高度履歴

Altitude vs Time

uPlot chart will show altitude changes over time

軌道要素

1 45384U 20019AA 25353.33335648 .01717993 00000-0 75002-1 0 9991
2 45384 53.0536 147.6858 0001643 112.5659 116.6984 15.18595500 5706
Epoch: Dec 19, 2025 • Age: 8 hours

現在のステータス

高度 506.5 km
速度 7.61 km/s
衛星直下点 8.14°N, 2.92°W
打ち上げ日 Mar 18, 2020
運用期間 5.7 years
タイプ internet

技術仕様

分類 Payload
質量 260.00 kg
乾燥質量 248.00 kg
総質量 260.00 kg
長さ 0.20 m
直径 2.80 m
スパン 9.00 m
形状 Box + pan
製造者 SPXS
バスタイプ Starlink
フェーズステータス In Orbit
所有者/国 SPXS/US

大規模コンステレーション

Loading constellations...